SL-8 R/B

Satellite information

Favourite Embed

Satellite Type and Status

ROCKET BODYIN ORBIT

Key statistics

Satellite SL-8 R/B at a glance.

Uptime

15064

Days in orbit

Revolutions

≈ 14.4

Per day

Orbit

LEO

Low Earth Orbit

Inclination

74.1

Latest

Satellite identification and parameters

Extended collection of information and parameters for SL-8 R/B.

Object identification

Identified? True

Debris? False

Object name: SL-8 R/B

International designator: 1984-056B

Object number (NORAD): 15032

Object ID (CCSDS): 15032

Country: COMMONWEALTH OF INDEPENDENT STATES (CIS)

Current information (Y/N): Y

RCS size: LARGE

Orbital parameters

Period: 100.281 minutes

Inclination: 74.0724 deg

SMA: 7149.987 km

Apoapsis: 783.234 km

Periapsis: 760.47 km

RAAN: 347.5897 deg

Eccentricy: 0.00159192

Argument of periapsis: 113.7253 deg

Mean anomaly: 246.5572 deg

Mean motion: 14.35968344 rev/day

Mean motion (dot): 0.00000402 rev/day2

B* drag term: 0.0001470052 1/REarth

Two-line elements (TLE)

Creation date: Sept. 4, 2025, 10:13 a.m.

Reference frame: TEME

Reference center: EARTH

Epoch: Sept. 4, 2025, 12:48 a.m. UTC

TLE line 0: 0 SL-8 R/B

TLE line 1: 1 15032U 84056B 25247.03382269 .00000402 00000-0 14701-3 0 9999

TLE line 2: 2 15032 74.0724 347.5897 0015919 113.7253 246.5572 14.35968344157110

Live tracking on map

Real-time ground track for satellite SL-8 R/B.

In-orbit conjunctions

A list of the most updated potential collisions computed for object SL-8 R/B.

Target Orbit TCA Probability of collision Miss distance Type
COSMOS 2251 DEB LEO 2024-11-11 16:09:21 0.0001721033 842.0 (m) DEBRIS
FENGYUN 1C DEB SSO 2024-07-01 09:07:25 0.0009284374 153.0 (m) DEBRIS

Associated space launch

Military communications satellite

SL-8 R/B was lifted into orbit during the mission ‘Kosmos-3M | Strela-2M 35’, on board a Kosmos-3M space rocket.

The launch took place on June 8, 1984, 11:28 a.m. from 132/1 (132L).

For more information about the launch, click the button.

Launch to space Kosmos-3M | Strela-2M 35
Kosmos-3M | Strela-2M 35

Agency: N/A

Status: Launch Successful

Launch date: June 8, 1984, 11:28 a.m. UTC

Rocket: Kosmos-3M

Launch pad: 132/1 (132L)

Location: Plesetsk Cosmodrome, Russian Federation

...

Latest news about this satellite

There are no fresh news available about this satellite. Check back as we update our databases every day.


Newsletter sign-up

Weekly statistics, charts and insights to help you stay on top of the space industry.